Temp
11 11 11 11 11 11 11 11 11 11 11 12 11 11 12 12 11 11 11 11 11 11 11 11 12 12 12 12 11 11 11 11 12 11 12 12 12 12 12 12 13 13 13
12 11 11 11 11 11 11 11 11 12 12 12 12 11 11 12 11 11 11 11 11 11 11 12 12 12 12 12 11 11 11 11 11 11 11 11 11 11 12 12 13 13 14
12 11 11 11 11 11 11 11 11 11 12 12 12 12 11 11 11 11 11 11 11 12 11 11 12 12 12 12 11 11 11 12 12 12 12 12 12 12 12 12 13 14 13
12 11 11 11 12 12 11 11 11 11 11 11 12 12 12 11 11 11 11 11 11 11 12 12 11 12 12 12 12 12 12 12 12 12 12 12 12 12 13 13 13 14 13
14 13 12 11 12 11 11 11 11 11 11 11 12 12 12 12 12 12 12 11 11 12 12 12 12 12 12 12 12 12 12 12 12 12 13 13 13 13 13 13 14 14 13
13 14 13 12 12 12 12 12 11 11 12 12 12 12 13 12 12 12 12 12 11 12 12 12 12 12 12 12 12 12 12 12 12 12 12 13 13 13 13 14 14 14 14
13 14 13 12 12 13 13 12 12 12 12 12 12 12 13 13 12 12 11 12 12 12 12 12 12 12 12 12 12 12 12 12 12 12 13 13 13 13 14 14 14 14 14
13 13 13 13 12 12 13 13 13 13 13 13 13 13 13 13 13 12 11 11 12 12 12 12 12 12 12 12 12 12 12 12 12 12 13 13 13 13 13 14 14 15 14
12 12 13 12 12 12 13 13 13 13 13 13 13 13 13 13 13 13 12 11 12 12 12 12 12 12 12 12 12 12 12 13 12 12 13 13 13 13 14 15 14 15 14
11 12 12 11 11 12 13 12 12 13 13 13 13 13 13 13 13 13 12 12 12 12 12 12 12 12 12 12 12 12 13 13 12 12 13 13 13 14 14 14 14 15 15
12 12 12 12 11 12 13 13 11 12 12 13 13 13 13 13 13 13 12 12 12 12 13 13 13 12 12 12 12 12 13 12 13 13 14 14 14 14 14 14 14 15 15
11 11 11 11 11 11 12 13 12 12 12 12 13 13 12 13 13 13 13 13 13 13 13 13 13 13 12 12 12 12 12 12 13 13 14 14 14 14 14 14 14 15 15
10 11 10 11 12 12 12 14 13 12 13 13 13 14 14 13 13 13 13 13 13 13 13 13 13 12 12 12 12 12 12 13 13 14 14 14 14 14 14 14 14 14 14
9 10 10 12 13 12 12 13 13 13 13 14 14 14 15 14 14 14 13 13 13 13 13 13 13 12 12 12 12 12 13 13 13 13 13 13 14 14 14 14 14 14 14
11 12 12 12 11 12 12 13 13 14 14 14 15 14 14 14 14 13 13 13 12 12 12 12 12 12 13 13 13 13 13 13 13 13 13 13 13 13 13 14 14 14 14
9 10 10 10 11 12 13 13 14 14 14 14 14 14 14 14 14 13 13 12 12 11 11 11 12 13 13 13 13 13 13 14 14 13 14 14 13 13 13 13 14 13 14
10 10 11 11 11 12 12 13 14 14 14 14 14 14 15 15 14 14 13 12 12 11 11 12 12 12 13 13 13 13 13 14 13 13 13 13 13 13 13 13 13 13 13
10 10 11 12 12 11 12 13 13 14 14 14 15 15 15 15 15 14 14 13 12 12 12 12 12 13 13 13 13 13 13 13 13 13 13 12 12 12 13 13 13 12 12
11 10 11 11 11 12 12 13 12 13 13 13 13 14 15 15 15 14 14 13 12 12 12 12 12 11 11 11 11 11 11 11 11 12 12 12 12 12 12 12 12 12 12
9 10 11 11 12 12 11 12 12 12 12 12 12 13 13 13 12 13 13 12 12 12 11 11 11 11 11 11 12 12 11 11 9 10 11 12 12 12 11 11 11 12 12
8 9 8 10 10 11 12 12 11 11 12 12 11 11 12 11 11 11 11 12 12 11 11 10 11 11 11 11 10 10 10 10 5 5 11 9 10 10 11 11 11 10 11
6 6 7 9 9 10 10 11 12 12 12 13 12 11 11 11 11 12 11 11 11 11 10 10 10 10 10 9 10 11 11 10 7 9 7 8 9 9 10 10 10 9 8
5 6 5 7 8 9 9 11 11 12 10 10 10 10 10 11 11 11 11 10 9 9 9 9 9 9 9 10 11 10 10 11 10 9 9 8 9 9 10 9 9 7 8
4 6 6 7 7 7 8 7 7 9 9 8 8 9 9 9 9 10 9 10 9 9 9 8 9 9 10 10 10 10 8 9 9 8 8 9 9 9 8 8 7 7 8
4 5 6 6 6 7 7 8 8 8 7 8 7 9 8 7 7 8 8 8 9 7 7 8 8 8 8 9 8 8 7 7 7 8 8 7 7 7 7 6 7 7 7
1 1 4 5 5 4 4 5 6 6 7 7 6 7 6 7 6 5 6 7 8 6 6 6 7 7 7 7 7 6 6 6 6 7 7 6 6 5 6 6 6 6 6
Height
3193 3197 3202 3206 3210 3214 3217 3221 3225 3227 3230 3232 3233 3234 3236 3237 3238 3239 3240 3242 3243 3244 3244 3245 3247 3248 3250 3252 3254 3256 3257 3257 3258 3258 3258 3258 3257 3256 3254 3252 3250 3249 3248
3191 3193 3197 3202 3206 3209 3213 3217 3221 3224 3227 3229 3231 3232 3234 3235 3236 3237 3239 3240 3242 3243 3244 3245 3246 3248 3250 3252 3253 3254 3255 3255 3256 3256 3256 3256 3256 3254 3252 3251 3250 3248 3246
3185 3189 3192 3196 3200 3204 3208 3213 3217 3220 3222 3224 3227 3229 3231 3233 3234 3235 3236 3238 3240 3241 3242 3244 3245 3247 3248 3249 3251 3252 3252 3253 3253 3254 3254 3254 3254 3252 3251 3248 3247 3246 3243
3180 3183 3187 3191 3195 3199 3204 3207 3211 3215 3217 3220 3222 3226 3228 3229 3230 3232 3233 3235 3237 3238 3240 3241 3242 3244 3245 3246 3247 3248 3248 3249 3249 3250 3250 3250 3250 3249 3246 3244 3245 3242 3241
3177 3179 3180 3187 3190 3194 3197 3201 3205 3208 3211 3214 3216 3219 3223 3225 3227 3228 3230 3231 3232 3234 3235 3237 3238 3239 3241 3242 3243 3244 3244 3245 3245 3245 3246 3246 3246 3245 3243 3242 3240 3238 3238
3170 3173 3177 3180 3184 3188 3191 3195 3198 3201 3204 3207 3209 3212 3214 3218 3221 3224 3225 3227 3228 3229 3231 3232 3233 3234 3236 3237 3237 3239 3240 3240 3241 3241 3241 3241 3241 3240 3239 3238 3236 3234 3232
3159 3166 3170 3173 3178 3181 3185 3188 3191 3195 3197 3199 3202 3205 3207 3210 3214 3217 3219 3221 3223 3224 3226 3227 3228 3229 3230 3231 3232 3232 3233 3234 3234 3235 3235 3236 3235 3235 3234 3234 3232 3229 3227
3153 3159 3165 3168 3170 3176 3178 3181 3184 3188 3190 3193 3196 3198 3200 3203 3207 3210 3212 3213 3215 3217 3219 3221 3222 3223 3225 3226 3226 3226 3227 3228 3228 3228 3229 3231 3229 3230 3230 3228 3227 3224 3223
3148 3152 3155 3160 3164 3168 3171 3175 3179 3181 3184 3186 3189 3191 3193 3196 3199 3202 3205 3205 3207 3209 3212 3214 3215 3217 3218 3219 3219 3220 3221 3222 3223 3223 3222 3223 3224 3225 3224 3223 3222 3219 3217
3140 3144 3148 3149 3155 3161 3165 3168 3173 3176 3178 3180 3182 3184 3186 3188 3191 3194 3195 3197 3199 3202 3204 3206 3208 3209 3211 3212 3212 3213 3213 3216 3216 3216 3216 3217 3219 3219 3218 3216 3215 3214 3211
3130 3134 3138 3140 3145 3153 3157 3162 3164 3168 3170 3173 3175 3177 3177 3179 3182 3185 3187 3188 3190 3194 3195 3197 3199 3201 3203 3204 3205 3205 3207 3209 3209 3209 3210 3211 3212 3212 3211 3210 3209 3207 3205
3123 3123 3127 3133 3139 3145 3148 3151 3156 3159 3162 3165 3167 3169 3169 3171 3173 3176 3178 3179 3183 3184 3186 3189 3192 3194 3195 3197 3197 3199 3201 3201 3202 3203 3204 3206 3206 3206 3205 3204 3202 3201 3199
3118 3120 3123 3128 3133 3136 3140 3143 3146 3150 3152 3156 3158 3160 3162 3163 3165 3168 3170 3171 3173 3174 3177 3181 3184 3186 3188 3188 3189 3191 3192 3193 3195 3197 3199 3200 3200 3200 3199 3198 3196 3194 3193
3113 3115 3120 3122 3124 3129 3133 3135 3138 3140 3143 3146 3149 3151 3154 3156 3158 3160 3161 3163 3165 3166 3169 3172 3175 3177 3178 3179 3181 3183 3185 3187 3188 3189 3191 3193 3193 3193 3192 3191 3190 3187 3186
3105 3108 3111 3113 3115 3119 3122 3127 3131 3132 3135 3138 3140 3142 3145 3148 3151 3154 3155 3156 3159 3161 3164 3164 3165 3168 3170 3172 3175 3177 3177 3179 3180 3182 3185 3186 3185 3185 3185 3184 3183 3182 3180
3103 3106 3106 3108 3111 3113 3115 3116 3121 3123 3125 3127 3129 3131 3134 3138 3142 3145 3147 3150 3152 3155 3154 3154 3156 3159 3162 3164 3165 3167 3169 3170 3172 3174 3175 3174 3177 3178 3178 3178 3177 3175 3173
3093 3097 3099 3101 3103 3104 3106 3107 3110 3113 3114 3117 3119 3121 3123 3127 3130 3135 3138 3141 3144 3145 3143 3145 3147 3150 3153 3155 3156 3157 3159 3161 3163 3164 3165 3167 3167 3168 3170 3170 3169 3168 3165
3078 3084 3086 3087 3090 3092 3095 3098 3099 3100 3103 3105 3107 3110 3113 3115 3118 3123 3126 3130 3131 3132 3134 3136 3139 3142 3144 3146 3147 3149 3151 3152 3154 3156 3157 3158 3159 3160 3161 3160 3159 3158 3157
3064 3070 3074 3077 3080 3082 3084 3086 3088 3090 3091 3093 3096 3099 3102 3105 3107 3110 3115 3117 3120 3124 3126 3128 3131 3133 3135 3136 3136 3136 3137 3143 3145 3145 3146 3146 3149 3151 3151 3151 3150 3149 3146
3052 3055 3058 3062 3068 3070 3071 3072 3074 3077 3080 3083 3085 3088 3091 3094 3098 3101 3104 3107 3111 3113 3116 3119 3122 3124 3124 3124 3125 3126 3126 3127 3132 3133 3135 3133 3135 3138 3140 3140 3140 3138 3137
3035 3039 3042 3047 3053 3055 3057 3059 3063 3064 3066 3069 3072 3077 3080 3084 3089 3089 3094 3096 3099 3101 3105 3108 3112 3115 3115 3118 3119 3117 3120 3118 3087 3085 3088 3117 3122 3126 3129 3129 3129 3127 3125
3027 3031 3032 3033 3039 3040 3043 3045 3047 3049 3049 3052 3060 3065 3068 3073 3076 3080 3083 3085 3089 3093 3095 3098 3103 3106 3106 3106 3106 3104 3101 3095 3100 3087 3086 3107 3115 3118 3120 3120 3119 3116 3114
3023 3025 3024 3025 3027 3028 3029 3028 3029 3027 3029 3036 3047 3054 3057 3061 3066 3067 3070 3074 3078 3083 3084 3087 3093 3097 3098 3096 3095 3094 3094 3090 3090 3094 3099 3104 3107 3109 3111 3110 3108 3106 3105
3016 3014 3018 3018 3019 3019 3018 3018 3020 3020 2999 3021 3034 3042 3048 3051 3053 3057 3060 3063 3065 3070 3075 3077 3079 3083 3087 3088 3085 3084 3082 3084 3086 3090 3095 3099 3100 3100 3103 3101 3099 3099 3097
3005 3007 3010 3013 3009 3006 3006 3008 3013 3015 3019 3024 3030 3033 3038 3036 3041 3045 3050 3053 3054 3061 3066 3064 3069 3071 3073 3076 3078 3079 3080 3080 3082 3084 3085 3088 3091 3091 3089 3089 3088 3088 3089
2996 2999 3002 3004 3001 3003 2996 3001 3009 3011 3014 3019 3023 3020 3028 3033 3038 3040 3042 3039 3049 3051 3049 3051 3053 3064 3065 3067 3068 3071 3073 3075 3076 3077 3078 3078 3078 3079 3078 3076 3078 3079 3079
Wind_Speed
32 32 31 31 29 28 26 22 20 19 17 15 16 16 13 12 12 11 11 10 8 7 8 10 11 13 15 17 15 11 9 8 7 4 2 3 7 10 13 15 17 17 15
32 33 32 31 33 32 30 25 22 20 19 17 16 16 15 14 13 12 12 11 12 10 9 10 13 15 14 13 13 11 10 10 8 6 6 8 9 13 14 14 15 16 15
32 34 34 33 34 35 34 31 28 25 23 20 18 17 17 14 13 13 13 13 13 14 14 12 14 16 17 16 15 14 13 13 12 11 11 11 10 15 15 17 16 14 17
31 32 35 36 35 34 35 35 33 30 29 26 22 19 18 18 17 16 15 14 14 15 16 17 17 15 16 17 17 17 17 15 14 14 13 13 13 15 17 18 13 15 16
31 33 34 35 35 36 36 38 37 35 33 31 29 25 22 21 21 19 18 16 16 15 16 18 19 19 20 20 20 19 19 18 18 18 17 17 15 16 17 15 15 18 18
34 36 32 33 35 34 36 37 38 37 36 35 34 31 28 26 24 22 21 20 20 19 18 18 18 21 22 22 23 24 24 24 23 23 21 18 16 17 16 13 16 20 23
34 34 32 29 34 32 31 37 37 37 38 37 36 35 33 31 28 25 24 24 23 22 21 21 20 20 20 21 22 23 25 25 24 24 22 18 17 15 13 13 17 22 24
42 30 29 27 26 32 34 31 35 36 37 36 36 36 36 33 32 30 28 28 27 26 25 24 24 23 22 22 22 23 22 22 20 21 20 16 17 12 13 16 19 23 25
43 35 27 25 21 27 33 34 31 32 35 35 33 34 36 35 34 33 32 33 31 28 27 27 27 26 24 24 25 25 24 22 20 21 21 18 16 14 16 18 19 24 26
48 42 36 29 26 26 32 31 31 33 31 30 31 31 32 35 35 35 35 35 34 32 30 30 29 28 27 26 28 27 26 22 21 23 23 20 16 14 16 19 22 25 24
50 47 40 33 31 23 22 28 29 34 33 34 32 29 29 32 34 35 36 37 35 33 33 32 31 30 28 27 28 29 26 24 22 23 21 17 15 16 18 21 24 23 22
41 50 36 37 34 31 25 26 26 32 34 35 33 34 34 32 34 34 36 37 35 35 35 32 31 30 30 29 30 28 27 27 25 24 20 17 17 18 20 22 23 22 22
48 48 47 42 40 34 31 28 27 28 35 36 35 29 29 33 33 34 35 36 36 37 35 33 31 31 29 30 31 29 27 26 24 23 20 18 19 21 22 20 22 22 21
37 51 41 42 34 33 36 32 32 31 32 38 38 34 27 23 22 27 34 35 35 36 35 34 33 32 33 32 31 30 29 27 25 25 22 21 23 23 20 20 19 20 20
27 42 43 36 37 39 40 42 39 34 32 31 38 40 37 31 25 20 23 30 32 32 30 31 33 33 33 32 30 30 30 30 29 27 25 24 23 22 19 18 18 19 21
27 28 39 39 37 41 44 44 41 38 35 32 31 36 42 41 38 32 26 23 25 26 31 34 35 35 31 31 31 30 31 31 30 28 28 28 25 23 20 18 19 19 20
36 30 35 38 40 38 41 44 43 41 38 36 34 34 37 43 44 41 37 35 34 36 40 40 39 35 32 31 32 32 33 32 30 31 32 30 28 26 24 21 21 23 23
45 39 34 35 37 42 45 43 42 42 42 41 39 38 35 36 43 45 42 40 40 38 37 36 36 33 29 30 29 29 29 30 31 31 31 31 29 27 25 23 25 25 25
55 49 46 38 35 41 46 45 43 37 37 40 42 42 39 34 38 46 44 43 38 36 35 34 28 26 28 30 32 32 30 29 30 31 31 30 29 28 24 25 27 28 30
54 58 50 45 41 45 44 45 44 45 42 41 41 41 43 40 37 41 44 42 36 32 28 31 31 32 35 38 39 39 37 32 30 34 32 29 28 26 27 27 27 29 32
48 46 39 37 39 44 46 47 50 49 49 49 43 41 41 41 35 39 43 43 39 38 34 33 32 34 36 35 32 41 46 58 67 67 22 23 24 27 29 29 31 31 34
36 37 44 44 38 39 42 47 48 53 54 54 51 44 42 41 40 43 45 46 42 40 37 36 36 33 31 33 37 32 33 27 28 35 20 22 30 31 31 32 33 31 28
38 28 31 29 30 33 40 43 42 48 53 58 49 44 43 42 41 47 45 48 43 37 35 32 25 24 30 32 33 31 27 20 15 12 24 32 36 37 35 33 33 29 28
42 19 27 26 32 35 28 23 22 18 31 45 42 41 36 40 42 48 52 54 48 40 38 38 33 39 27 28 26 24 22 20 21 25 32 40 42 37 31 28 26 28 28
36 33 24 13 2 18 37 49 39 23 26 35 42 43 37 31 36 36 43 44 43 51 45 35 27 23 19 19 18 20 18 20 21 21 24 25 24 27 26 25 29 29 27
25 21 28 26 14 5 2 4 8 19 24 28 21 22 25 25 24 28 31 37 42 26 15 17 24 24 20 23 21 23 27 26 25 27 24 23 26 26 28 27 28 27 27
Wind_Direction
219 221 221 219 224 226 225 219 216 217 215 202 203 205 199 193 189 185 186 196 196 191 182 174 167 163 172 176 183 188 195 191 194 197 235 308 334 335 337 338 341 341 338
220 221 223 222 220 226 227 227 223 226 225 214 203 200 202 199 194 195 192 195 205 197 203 192 181 178 181 186 193 197 210 217 220 243 271 290 302 310 317 322 322 322 336
221 223 222 223 222 222 226 228 227 226 231 232 223 215 215 216 206 206 201 200 206 207 205 204 201 197 198 201 206 211 218 229 230 231 242 264 287 300 302 303 316 324 346
220 225 227 225 225 224 225 228 229 228 228 233 236 230 221 221 224 220 216 212 208 212 212 212 215 214 216 220 223 225 230 236 247 255 259 271 285 287 297 305 312 324 338
223 224 226 233 229 229 228 228 230 230 229 229 234 236 233 226 225 226 225 226 226 216 220 221 222 223 223 228 235 240 244 246 251 260 269 276 283 287 290 295 312 318 335
227 223 229 231 236 234 232 232 230 230 230 230 231 232 232 231 226 227 231 230 231 231 223 224 227 230 233 235 239 243 248 253 257 261 265 271 276 278 279 298 307 313 321
233 228 230 236 235 237 237 235 236 233 232 231 229 231 232 231 234 233 234 237 235 233 233 231 230 231 233 237 242 245 248 252 257 260 263 266 264 268 280 297 306 308 321
243 234 229 229 231 236 239 238 235 236 237 236 232 232 233 232 232 233 234 238 238 235 233 234 236 236 235 238 242 246 250 252 254 258 261 255 263 268 289 294 302 308 323
238 235 222 225 227 229 234 239 238 238 238 243 242 237 237 236 234 234 233 235 239 238 239 237 238 239 239 242 245 245 246 249 253 256 259 260 265 283 286 287 303 310 316
231 237 235 238 246 235 231 235 240 240 238 239 244 243 239 239 238 237 237 238 238 239 237 240 240 241 240 240 246 248 247 244 245 243 249 254 259 272 286 295 305 310 310
221 226 229 235 244 236 236 239 241 238 239 237 238 242 242 238 236 236 239 242 242 241 240 238 239 240 241 241 244 247 249 249 246 244 243 250 267 278 287 294 301 301 302
212 223 229 236 238 243 238 232 240 241 238 238 237 237 241 241 239 237 236 240 242 243 244 243 240 239 240 242 245 247 245 247 243 242 245 250 261 272 281 292 291 293 297
235 225 231 237 240 240 243 234 235 243 239 234 237 236 238 242 243 239 239 241 242 244 245 247 247 247 245 244 248 249 248 246 241 242 246 252 260 270 282 281 284 292 303
228 225 227 236 236 240 244 253 252 244 240 236 234 233 234 236 241 245 241 239 242 245 246 247 249 248 247 247 246 246 247 246 248 249 250 254 261 272 276 275 285 295 302
232 228 225 242 246 247 254 255 253 252 247 244 239 237 236 238 241 246 249 243 242 246 250 250 250 251 252 251 250 245 243 243 243 244 249 255 264 271 269 277 288 301 311
263 242 232 238 243 251 248 253 251 249 250 245 245 241 238 239 239 238 241 240 236 236 241 247 250 252 253 255 252 248 242 240 241 243 248 254 263 262 263 272 287 300 306
254 252 235 234 238 247 249 252 251 252 250 250 250 249 245 240 239 239 237 240 240 244 248 249 250 252 254 251 251 248 245 242 240 240 245 252 253 250 258 268 281 290 296
254 261 251 244 246 248 249 250 251 252 254 253 250 253 251 250 240 237 238 239 247 247 248 252 247 247 248 249 249 251 252 250 247 247 248 247 243 247 256 268 278 285 293
250 256 258 255 254 252 251 252 249 255 252 253 254 254 255 256 247 236 236 240 247 251 251 250 243 240 241 241 241 241 241 251 251 246 242 240 242 250 261 271 279 285 290
252 254 259 259 259 249 247 244 243 246 251 253 254 256 256 255 244 243 237 238 243 245 240 238 240 243 244 243 244 246 244 235 248 241 237 236 244 253 262 270 277 285 289
248 255 259 252 247 246 247 248 245 241 246 247 248 251 253 250 239 246 241 233 236 238 241 244 248 254 256 256 260 267 275 247 265 305 234 249 260 259 268 276 283 284 289
244 249 253 255 250 248 245 243 247 246 242 242 245 244 243 241 235 241 236 238 237 243 245 253 259 257 260 268 274 282 292 288 286 310 260 266 266 268 275 279 280 279 274
234 239 255 258 255 252 256 255 258 257 242 236 238 238 234 238 240 236 236 240 238 242 242 242 258 263 265 271 281 280 268 270 274 267 270 271 270 269 271 268 276 267 285
236 217 244 254 260 248 220 235 265 244 226 220 236 236 233 230 235 240 242 233 232 240 244 245 263 274 282 275 275 273 268 262 246 243 251 257 263 266 269 278 261 274 285
223 208 219 215 287 221 228 235 253 234 225 226 231 230 223 232 215 223 235 233 235 238 253 264 276 274 270 260 255 260 236 230 237 247 233 256 269 274 275 267 274 278 278
229 229 212 194 171 192 23 95 185 192 197 201 215 221 220 235 242 261 252 230 240 248 258 276 278 264 254 238 248 251 249 263 261 251 255 265 266 265 270 275 273 272 272